Regional Weather Roundup
Issued by NWS Sioux Falls, SD

Home | Current Version | Previous Version | Graphics & Text | Print | Product List | Glossary Off
Versions: 1 2 3 4 5 6 7 8 9 10 11 12 13 14 15 16 17 18 19 20 21 22 23 24 25 26 27 28 29 30 31 32 33 34 35 36 37 38 39 40 41 42 43 44 45 46 47 48 49 50

000
ASUS43 KFSD 272002
RWRFSD

WEATHER ROUNDUP FOR SE SOUTH DAKOTA/SW MINNESOTA/NW IOWA
NATIONAL WEATHER SERVICE SIOUX FALLS SD
300 PM CDT SAT MAY 27 2017

NOTE: "FAIR" INDICATES FEW OR NO CLOUDS BELOW 12,000 FEET WITH NO
SIGNIFICANT WEATHER AND OR OBSTRUCTIONS TO VISIBILITY.


SDZ038>040-050-052>070-272100-
SOUTHEAST SOUTH DAKOTA

CITY           SKY/WX    TMP DP  RH WIND       PRES   REMARKS
BROOKINGS      PTSUNNY   68  45  43 SW12      29.92F
CHAMBERLAIN    NOT AVBL
HURON          PTSUNNY   69  45  41 W9        29.93F
MADISON        CLOUDY    66  46  48 S5        29.93F
MITCHELL       CLOUDY    69  46  43 NW13      29.94F
SIOUX FALLS    CLOUDY    65  53  65 SW8       29.93F
WINNER         FAIR      67  52  58 SW8       29.98F
YANKTON        PTSUNNY   64  49  57 N7        29.95F
$$

MNZ071-072-080-081-089-090-097-098-272100-
SOUTHWEST MINNESOTA

CITY           SKY/WX    TMP DP  RH WIND       PRES   REMARKS
FAIRMONT       CLOUDY    65  47  52 CALM      29.93F
JACKSON        CLOUDY    63  52  67 W8        29.95S
LUVERNE        CLOUDY    63  50  63 SW9       29.95F
MARSHALL       CLOUDY    71  42  35 S12       29.90F
MONTEVIDEO     PTSUNNY   75  43  31 SW6       29.87F
PIPESTONE      PTSUNNY   68  43  40 W6        29.93S
REDWOOD FALLS  CLOUDY    72  38  29 S3        29.89F
TRACY          CLOUDY    70  41  34 CALM      29.91F
WINDOM         PTSUNNY   66  50  55 SW9       29.93F
WORTHINGTON    CLOUDY    63  49  60 SW10      29.95F
$$

IAZ001>003-012>014-020>022-031-032-NEZ013-014-SDZ071-272100-
NORTHWEST IOWA

CITY           SKY/WX    TMP DP  RH WIND       PRES   REMARKS
CHEROKEE       CLOUDY    70  52  52 N9        29.89F
DENISON        CLOUDY    68  52  56 NE13      29.87F
ESTHERVILLE    CLOUDY    63  52  67 NW9       29.92F
LE MARS        CLOUDY    68  54  60 N15       29.92F
ORANGE CITY    MOSUNNY   64  55  72 N10       29.93F
SHELDON        CLOUDY    63  54  72 NW10      29.93F
SIOUX CITY     SUNNY     73  51  46 N14       29.89F
SPENCER        CLOUDY    64  56  75 NW8       29.93F
STORM LAKE     CLOUDY    70  48  46 N17       29.89F
$$

ABBREVIATIONS USED IN REMARKS
   TC - TEMPERATURE IN CELSIUS
  WCI - WIND CHILL INDEX
   HX - HEAT INDEX
  VSB - VISIBILITY





USA.gov is the U.S. government's official web portal to all federal, state and local government web resources and services.